EG99N EDDF-ENGM

Flight info

Callsign EG99N
Flight time N/A
Altitude 39000
Route MARUN6E/07C MARUN Y150 TOLGI DCT ALASA DCT INVOL DCT SABAK/N0490F380 L997 LUNIP
Aircraft C750/M-SBDE3FGHRWXY/S

Departure

Time N/A
Airport Frankfurt Main Airport (EDDF)

Arrival

Time 2026-05-07 21:49
Airport Oslo-Gardermoen International Airport (ENGM)
Time Latitude Longitude Altitude Speed Heading
2026-05-07 20:50 54.62485 9.83287 46158 ft 536 kts 21°
2026-05-07 20:50 54.65955 9.85709 46163 ft 536 kts 21°
2026-05-07 20:51 54.72906 9.90574 46167 ft 536 kts 21°
2026-05-07 20:51 54.79783 9.95398 46157 ft 536 kts 20°
2026-05-07 20:52 54.86929 9.98996 46191 ft 534 kts 12°
2026-05-07 20:52 54.94144 10.02181 46185 ft 535 kts 14°
2026-05-07 20:53 55.01323 10.05577 46188 ft 534 kts 13°
2026-05-07 20:53 55.08529 10.08825 46185 ft 535 kts 13°
2026-05-07 20:54 55.15720 10.12207 46171 ft 534 kts 13°
2026-05-07 20:54 55.22912 10.15511 46161 ft 534 kts 13°
2026-05-07 20:55 55.30050 10.18863 46160 ft 534 kts 13°
2026-05-07 20:55 55.37233 10.22211 46184 ft 534 kts 13°
2026-05-07 20:56 55.44419 10.25595 46167 ft 534 kts 13°
2026-05-07 20:56 55.51604 10.28979 46157 ft 534 kts 13°
2026-05-07 20:57 55.58779 10.32378 46161 ft 534 kts 13°
2026-05-07 20:57 55.65963 10.35791 46152 ft 534 kts 13°
2026-05-07 20:58 55.73138 10.39214 46145 ft 534 kts 13°
2026-05-07 20:58 55.80313 10.42649 46141 ft 534 kts 13°
2026-05-07 20:59 55.87481 10.46094 46149 ft 534 kts 13°
2026-05-07 20:59 55.94653 10.49554 46147 ft 534 kts 13°
2026-05-07 21:00 56.01822 10.53027 46156 ft 534 kts 13°
2026-05-07 21:00 56.08950 10.56492 46148 ft 534 kts 13°
2026-05-07 21:01 56.16127 10.59995 46169 ft 534 kts 13°
2026-05-07 21:01 56.23290 10.63505 46172 ft 534 kts 13°
2026-05-07 21:02 56.30458 10.67031 46185 ft 534 kts 14°
2026-05-07 21:02 56.37618 10.70566 46190 ft 534 kts 14°
2026-05-07 21:03 56.44777 10.74115 46212 ft 533 kts 14°
2026-05-07 21:03 56.51930 10.77675 46226 ft 533 kts 14°
2026-05-07 21:04 56.59094 10.81254 46219 ft 534 kts 14°
2026-05-07 21:04 56.66255 10.84846 46228 ft 533 kts 14°
2026-05-07 21:05 56.73409 10.88448 46233 ft 533 kts 14°
2026-05-07 21:05 56.80564 10.92066 46242 ft 533 kts 14°
2026-05-07 21:06 56.87719 10.95697 46249 ft 534 kts 14°
2026-05-07 21:06 56.94881 10.99347 46271 ft 534 kts 14°
2026-05-07 21:07 57.01990 11.02984 46283 ft 534 kts 14°
2026-05-07 21:07 57.09149 11.06661 46291 ft 534 kts 14°
2026-05-07 21:08 57.16306 11.10352 46311 ft 534 kts 14°
2026-05-07 21:08 57.23458 11.14056 46325 ft 534 kts 14°
2026-05-07 21:09 57.30615 11.17777 46334 ft 534 kts 14°
2026-05-07 21:09 57.37777 11.21515 46345 ft 534 kts 14°
2026-05-07 21:10 57.44932 11.25265 46379 ft 535 kts 14°
2026-05-07 21:10 57.52106 11.29042 46392 ft 535 kts 14°
2026-05-07 21:11 57.59302 11.32842 45670 ft 541 kts 14°
2026-05-07 21:11 57.62846 11.34723 44973 ft 532 kts 14°
2026-05-07 21:11 57.69821 11.38435 43602 ft 509 kts 13°
2026-05-07 21:12 57.73200 11.40234 42925 ft 499 kts 13°
2026-05-07 21:12 57.76509 11.42002 42276 ft 490 kts 13°
2026-05-07 21:12 57.79759 11.43744 41636 ft 481 kts 13°
2026-05-07 21:12 57.82955 11.45457 41010 ft 474 kts 13°
2026-05-07 21:13 57.86107 11.47150 40392 ft 467 kts 13°
2026-05-07 21:13 57.89207 11.48818 39785 ft 460 kts 14°
2026-05-07 21:13 57.92265 11.50467 39186 ft 454 kts 14°
2026-05-07 21:13 57.95278 11.52095 38530 ft 447 kts 14°
2026-05-07 21:14 57.98241 11.53699 37947 ft 439 kts 13°
2026-05-07 21:14 58.01153 11.55278 37368 ft 432 kts 13°
2026-05-07 21:14 58.04026 11.56836 36802 ft 427 kts 13°
2026-05-07 21:14 58.06860 11.58377 36241 ft 422 kts 13°
2026-05-07 21:15 58.09664 11.59906 35691 ft 417 kts 13°
2026-05-07 21:15 58.12432 11.61416 35144 ft 411 kts 13°
2026-05-07 21:15 58.15160 11.62881 34603 ft 404 kts 11°
2026-05-07 21:15 58.17902 11.63657 34036 ft 394 kts 359°
2026-05-07 21:16 58.20597 11.63401 33517 ft 383 kts 349°
2026-05-07 21:16 58.23217 11.62573 33026 ft 380 kts 347°
2026-05-07 21:16 58.25819 11.61755 32526 ft 379 kts 347°
2026-05-07 21:16 58.28423 11.60972 32028 ft 378 kts 348°
2026-05-07 21:17 58.31013 11.60186 31526 ft 379 kts 347°
2026-05-07 21:17 58.33718 11.59333 31017 ft 410 kts 347°
2026-05-07 21:17 58.36605 11.58425 30455 ft 424 kts 348°
2026-05-07 21:17 58.39511 11.57545 29851 ft 421 kts 348°
2026-05-07 21:18 58.42392 11.56666 29295 ft 417 kts 348°
2026-05-07 21:18 58.45244 11.55771 28749 ft 414 kts 348°
2026-05-07 21:18 58.48041 11.54890 28204 ft 411 kts 348°
2026-05-07 21:18 58.50853 11.54014 27671 ft 408 kts 348°
2026-05-07 21:19 58.53634 11.53152 27130 ft 401 kts 347°
2026-05-07 21:19 58.56371 11.52297 26602 ft 398 kts 347°
2026-05-07 21:19 58.59183 11.51402 26060 ft 418 kts 347°
2026-05-07 21:19 58.62040 11.50506 25518 ft 414 kts 348°
2026-05-07 21:20 58.64938 11.49602 24964 ft 433 kts 348°
2026-05-07 21:20 58.67917 11.48662 24383 ft 432 kts 348°
2026-05-07 21:20 58.70871 11.47733 24183 ft 429 kts 348°
2026-05-07 21:20 58.73843 11.46793 24185 ft 434 kts 348°
2026-05-07 21:21 58.76823 11.45848 24186 ft 435 kts 348°
2026-05-07 21:21 58.79810 11.44901 24195 ft 435 kts 348°
2026-05-07 21:21 58.82802 11.43951 24243 ft 434 kts 347°
2026-05-07 21:21 58.85796 11.42999 24255 ft 435 kts 347°
2026-05-07 21:22 58.88781 11.42046 24273 ft 436 kts 347°
2026-05-07 21:22 58.91776 11.41089 24293 ft 436 kts 347°
2026-05-07 21:22 58.94767 11.40133 24308 ft 436 kts 347°
2026-05-07 21:22 58.97770 11.39171 24196 ft 438 kts 347°
2026-05-07 21:23 59.00726 11.38222 23860 ft 434 kts 347°
2026-05-07 21:23 59.03696 11.37268 23441 ft 430 kts 347°
2026-05-07 21:23 59.06644 11.36317 23057 ft 428 kts 347°
2026-05-07 21:23 59.09583 11.35367 22681 ft 427 kts 347°
2026-05-07 21:24 59.12475 11.34225 22302 ft 421 kts 343°
2026-05-07 21:24 59.15318 11.32890 21928 ft 420 kts 343°
2026-05-07 21:24 59.18235 11.32303 21516 ft 425 kts 358°
2026-05-07 21:24 59.21162 11.33264 21154 ft 430 kts 12°
2026-05-07 21:25 59.24014 11.35052 20813 ft 430 kts 14°
2026-05-07 21:25 59.26848 11.36891 20438 ft 428 kts 14°
2026-05-07 21:25 59.29671 11.38669 20060 ft 426 kts 14°
2026-05-07 21:25 59.32490 11.40413 19685 ft 424 kts 14°
2026-05-07 21:26 59.35298 11.42182 19305 ft 422 kts 14°
2026-05-07 21:26 59.38089 11.43968 18934 ft 421 kts 15°
2026-05-07 21:26 59.40865 11.45734 18569 ft 419 kts 14°
2026-05-07 21:26 59.43634 11.47482 18167 ft 416 kts 14°
2026-05-07 21:27 59.46385 11.49210 17789 ft 414 kts 14°
2026-05-07 21:27 59.49118 11.50929 17424 ft 411 kts 14°
2026-05-07 21:27 59.50922 11.52070 17183 ft 410 kts 14°
2026-05-07 21:27 59.53628 11.53788 16823 ft 408 kts 14°
2026-05-07 21:28 59.57194 11.56050 16347 ft 405 kts 14°
2026-05-07 21:28 59.59866 11.57747 15992 ft 402 kts 15°
2026-05-07 21:28 59.62529 11.59442 15633 ft 400 kts 15°
2026-05-07 21:28 59.64314 11.60581 15401 ft 399 kts 15°
2026-05-07 21:29 59.66948 11.62263 15057 ft 397 kts 15°
2026-05-07 21:29 59.69495 11.63898 14706 ft 369 kts 15°
2026-05-07 21:29 59.71811 11.65392 14393 ft 340 kts 15°
2026-05-07 21:29 59.74010 11.66799 14094 ft 317 kts 14°
2026-05-07 21:30 59.76061 11.68108 13809 ft 304 kts 14°
2026-05-07 21:30 59.78037 11.69373 13532 ft 301 kts 14°
2026-05-07 21:30 59.80029 11.70653 13271 ft 301 kts 14°
2026-05-07 21:30 59.82025 11.71941 13012 ft 302 kts 15°
2026-05-07 21:31 59.84025 11.73233 12752 ft 302 kts 15°
2026-05-07 21:31 59.86023 11.74525 12481 ft 301 kts 15°
2026-05-07 21:31 59.88015 11.75814 12217 ft 300 kts 15°
2026-05-07 21:31 59.89994 11.77096 11954 ft 299 kts 15°
2026-05-07 21:32 59.91967 11.78375 11691 ft 298 kts 15°
2026-05-07 21:32 59.93930 11.79650 11435 ft 296 kts 15°
2026-05-07 21:32 59.95886 11.80927 11171 ft 295 kts 15°
2026-05-07 21:32 59.97838 11.82203 10909 ft 294 kts 16°
2026-05-07 21:33 59.99780 11.83472 10646 ft 293 kts 16°
2026-05-07 21:33 60.01718 11.84740 10393 ft 292 kts 16°
2026-05-07 21:33 60.03647 11.86006 10134 ft 292 kts 16°
2026-05-07 21:33 60.05574 11.87270 9865 ft 290 kts 16°
2026-05-07 21:34 60.07489 11.88529 9598 ft 289 kts 17°
2026-05-07 21:34 60.09391 11.89781 9347 ft 287 kts 17°
2026-05-07 21:34 60.11296 11.90955 9121 ft 284 kts 11°
2026-05-07 21:34 60.13238 11.91547 9147 ft 284 kts
2026-05-07 21:35 60.15197 11.92124 9160 ft 285 kts
2026-05-07 21:35 60.17164 11.92730 9160 ft 285 kts
2026-05-07 21:35 60.19103 11.93322 9157 ft 286 kts
2026-05-07 21:35 60.21095 11.93922 9154 ft 286 kts
2026-05-07 21:36 60.23038 11.94505 9151 ft 284 kts
2026-05-07 21:36 60.24934 11.95176 9133 ft 264 kts 11°
2026-05-07 21:36 60.26678 11.95742 9136 ft 247 kts
2026-05-07 21:36 60.28384 11.96111 9136 ft 248 kts
2026-05-07 21:37 60.30118 11.96449 9139 ft 260 kts
2026-05-07 21:37 60.31916 11.95552 9097 ft 264 kts 327°
2026-05-07 21:37 60.33011 11.92933 9091 ft 236 kts 289°
2026-05-07 21:37 60.33183 11.89696 9172 ft 236 kts 269°
2026-05-07 21:38 60.33241 11.86348 9163 ft 239 kts 275°
2026-05-07 21:38 60.33557 11.83046 9157 ft 240 kts 283°
2026-05-07 21:38 60.33984 11.79775 9159 ft 239 kts 283°
2026-05-07 21:38 60.34350 11.76657 9063 ft 219 kts 281°
2026-05-07 21:39 60.34668 11.73699 8799 ft 214 kts 281°
2026-05-07 21:39 60.34990 11.70748 8524 ft 216 kts 281°
2026-05-07 21:39 60.35319 11.67786 8248 ft 217 kts 281°
2026-05-07 21:39 60.35648 11.64816 7971 ft 217 kts 281°
2026-05-07 21:40 60.35977 11.61842 7683 ft 217 kts 281°
2026-05-07 21:40 60.36303 11.58875 7402 ft 217 kts 281°
2026-05-07 21:40 60.36629 11.55901 7127 ft 216 kts 281°
2026-05-07 21:40 60.36954 11.52933 6837 ft 216 kts 281°
2026-05-07 21:41 60.37279 11.49970 6553 ft 216 kts 281°
2026-05-07 21:41 60.37840 11.47184 6197 ft 216 kts 301°
2026-05-07 21:41 60.38718 11.44732 5954 ft 213 kts 305°
2026-05-07 21:41 60.39593 11.42347 5730 ft 207 kts 305°
2026-05-07 21:42 60.40443 11.40021 5484 ft 205 kts 305°
2026-05-07 21:42 60.41250 11.37665 5198 ft 203 kts 295°
2026-05-07 21:42 60.41322 11.34906 4897 ft 198 kts 252°
2026-05-07 21:42 60.40799 11.32367 4765 ft 197 kts 244°
2026-05-07 21:43 60.40253 11.29816 4514 ft 200 kts 245°
2026-05-07 21:43 60.39703 11.27215 4198 ft 200 kts 245°
2026-05-07 21:43 60.39160 11.24730 4220 ft 193 kts 240°
2026-05-07 21:43 60.38175 11.22962 4211 ft 191 kts 207°
2026-05-07 21:44 60.36918 11.22043 4187 ft 195 kts 196°
2026-05-07 21:44 60.35622 11.21273 3924 ft 189 kts 195°
2026-05-07 21:44 60.34404 11.20564 3664 ft 176 kts 195°
2026-05-07 21:44 60.33249 11.19893 3429 ft 171 kts 195°
2026-05-07 21:45 60.32130 11.19241 3197 ft 169 kts 195°
2026-05-07 21:45 60.31004 11.18577 2967 ft 167 kts 194°
2026-05-07 21:45 60.29974 11.17975 2741 ft 140 kts 194°
2026-05-07 21:45 60.29109 11.17470 2553 ft 123 kts 194°
2026-05-07 21:46 60.28305 11.17004 2396 ft 119 kts 193°
2026-05-07 21:46 60.27514 11.16546 2243 ft 119 kts 195°
2026-05-07 21:46 60.26719 11.16085 2086 ft 119 kts 195°
2026-05-07 21:46 60.25921 11.15616 1924 ft 119 kts 195°
2026-05-07 21:47 60.25125 11.15155 1760 ft 119 kts 195°
2026-05-07 21:47 60.24328 11.14693 1592 ft 119 kts 195°
2026-05-07 21:47 60.23527 11.14230 1426 ft 120 kts 195°
2026-05-07 21:47 60.22716 11.13769 1243 ft 122 kts 195°
2026-05-07 21:48 60.21909 11.13286 1095 ft 121 kts 197°
2026-05-07 21:48 60.21095 11.12814 936 ft 122 kts 196°
2026-05-07 21:48 60.20268 11.12334 739 ft 124 kts 196°
2026-05-07 21:48 60.19483 11.11864 686 ft 108 kts 196°
2026-05-07 21:49 60.18951 11.11564 682 ft 43 kts 195°
2026-05-07 21:49 60.18706 11.11428 679 ft 35 kts 195°
2026-05-07 21:49 60.18525 11.11288 675 ft 25 kts 211°
2026-05-07 21:49 60.18442 11.11139 679 ft 12 kts 244°
2026-05-07 21:50 60.18447 11.10986 678 ft 11 kts 291°
2026-05-07 21:50 60.18494 11.10919 679 ft 9 kts
2026-05-07 21:50 60.18552 11.10951 678 ft 9 kts 15°
2026-05-07 21:50 60.18609 11.10984 676 ft 10 kts 17°
2026-05-07 21:51 60.18689 11.11031 679 ft 14 kts 15°
2026-05-07 21:51 60.18792 11.11089 681 ft 16 kts 17°
2026-05-07 21:51 60.18898 11.11149 681 ft 15 kts 17°
2026-05-07 21:51 60.18993 11.11205 683 ft 13 kts 16°
2026-05-07 21:52 60.19081 11.11257 683 ft 13 kts 16°
2026-05-07 21:52 60.19170 11.11307 682 ft 13 kts 15°
2026-05-07 21:52 60.19261 11.11359 681 ft 14 kts 16°
2026-05-07 21:52 60.19354 11.11413 678 ft 14 kts 15°
2026-05-07 21:53 60.19444 11.11465 681 ft 13 kts 17°
2026-05-07 21:53 60.19535 11.11517 682 ft 14 kts 16°
2026-05-07 21:53 60.19639 11.11578 682 ft 17 kts 16°
2026-05-07 21:53 60.19752 11.11643 684 ft 15 kts 16°
2026-05-07 21:54 60.19819 11.11599 683 ft 12 kts 290°
2026-05-07 21:54 60.19844 11.11427 681 ft 14 kts 286°
2026-05-07 21:54 60.19870 11.11242 679 ft 14 kts 285°
2026-05-07 21:54 60.19897 11.11058 678 ft 14 kts 286°
2026-05-07 21:55 60.19926 11.10851 679 ft 17 kts 285°
2026-05-07 21:55 60.19961 11.10606 681 ft 20 kts 286°
2026-05-07 21:55 60.20002 11.10327 679 ft 22 kts 286°
2026-05-07 21:55 60.20045 11.10022 677 ft 23 kts 286°
2026-05-07 21:56 60.20089 11.09720 679 ft 22 kts 287°
2026-05-07 21:56 60.20131 11.09418 677 ft 22 kts 286°
2026-05-07 21:56 60.20169 11.09157 678 ft 15 kts 286°
2026-05-07 21:56 60.20198 11.08959 677 ft 15 kts 287°
2026-05-07 21:57 60.20230 11.08750 674 ft 12 kts 286°
2026-05-07 21:57 60.20248 11.08630 674 ft 0 kts 286°
2026-05-07 21:57 60.20251 11.08610 674 ft 4 kts 286°
2026-05-07 21:58 60.20264 11.08518 673 ft 9 kts 285°
2026-05-07 21:58 60.20286 11.08360 673 ft 14 kts 285°
2026-05-07 21:58 60.20313 11.08158 673 ft 15 kts 285°
2026-05-07 21:58 60.20338 11.07971 671 ft 12 kts 285°
2026-05-07 21:59 60.20317 11.07894 670 ft 6 kts 197°
2026-05-07 21:59 60.20273 11.07865 670 ft 7 kts 197°
2026-05-07 21:59 60.20234 11.07842 671 ft 5 kts 196°
2026-05-07 21:59 60.20221 11.07806 671 ft 4 kts 263°
2026-05-07 22:00 60.20229 11.07733 670 ft 6 kts 287°
2026-05-07 22:00 60.20241 11.07652 671 ft 5 kts 287°
2026-05-07 22:00 60.20241 11.07648 671 ft 0 kts 286°